GFA69 VOMM-OBBI

Flight info

Callsign GFA69
Flight time 4h 15m
Altitude 34000
Route DOLKI2A DOLKI Q8 AGELA N571 BEKUT/N0450F360 N571 MENSA DCT EGTAG P699 ORMID M556 ORDIG
Aircraft A320/M-SDE3FGHIRWY/LB1

Departure

Time 2026-04-21 10:07
Airport Chennai International Airport (VOMM)

Arrival

Time 2026-04-21 14:22
Airport Bahrain International Airport (OBBI)
Time Latitude Longitude Altitude Speed Heading
2026-04-21 09:43 12.98462 80.16601 55 ft 0 kts 159°
2026-04-21 09:58 12.98472 80.16597 52 ft 4 kts 162°
2026-04-21 09:58 12.98498 80.16591 51 ft 4 kts 178°
2026-04-21 09:59 12.98523 80.16595 49 ft 4 kts 218°
2026-04-21 09:59 12.98532 80.16606 48 ft 1 kts 249°
2026-04-21 09:59 12.98533 80.16608 48 ft 0 kts 249°
2026-04-21 10:01 12.98532 80.16607 55 ft 2 kts 249°
2026-04-21 10:01 12.98513 80.16555 51 ft 9 kts 248°
2026-04-21 10:01 12.98493 80.16504 53 ft 7 kts 249°
2026-04-21 10:02 12.98455 80.16396 52 ft 7 kts 250°
2026-04-21 10:02 12.98439 80.16352 52 ft 7 kts 250°
2026-04-21 10:02 12.98415 80.16286 51 ft 10 kts 249°
2026-04-21 10:03 12.98392 80.16221 54 ft 9 kts 250°
2026-04-21 10:03 12.98371 80.16163 52 ft 8 kts 250°
2026-04-21 10:03 12.98349 80.16102 55 ft 10 kts 249°
2026-04-21 10:03 12.98323 80.16035 52 ft 10 kts 248°
2026-04-21 10:04 12.98301 80.15979 55 ft 8 kts 248°
2026-04-21 10:04 12.98284 80.15933 51 ft 6 kts 248°
2026-04-21 10:04 12.98288 80.15895 53 ft 9 kts 292°
2026-04-21 10:04 12.98329 80.15775 53 ft 25 kts 285°
2026-04-21 10:05 12.98369 80.15621 55 ft 21 kts 285°
2026-04-21 10:05 12.98400 80.15501 56 ft 13 kts 285°
2026-04-21 10:05 12.98459 80.15457 49 ft 10 kts
2026-04-21 10:05 12.98496 80.15511 53 ft 13 kts 69°
2026-04-21 10:06 12.98602 80.15791 55 ft 76 kts 69°
2026-04-21 10:06 12.98866 80.16492 52 ft 133 kts 69°
2026-04-21 10:06 12.99255 80.17532 59 ft 177 kts 72°
2026-04-21 10:06 12.99666 80.18740 579 ft 176 kts 76°
2026-04-21 10:07 13.00102 80.19930 1206 ft 180 kts 68°
2026-04-21 10:07 13.00941 80.20944 1535 ft 202 kts 33°
2026-04-21 10:07 13.02366 80.21226 1682 ft 224 kts 346°
2026-04-21 10:07 13.03747 80.20450 1824 ft 237 kts 315°
2026-04-21 10:08 13.04962 80.19227 1997 ft 259 kts 311°
2026-04-21 10:08 13.06209 80.17826 2480 ft 269 kts 310°
2026-04-21 10:08 13.07468 80.16383 3173 ft 273 kts 311°
2026-04-21 10:08 13.08754 80.14918 3774 ft 279 kts 311°
2026-04-21 10:09 13.10069 80.13444 4521 ft 280 kts 312°
2026-04-21 10:09 13.11402 80.11966 5179 ft 284 kts 313°
2026-04-21 10:09 13.12756 80.10479 5883 ft 286 kts 315°
2026-04-21 10:09 13.14120 80.08990 6581 ft 287 kts 315°
2026-04-21 10:10 13.15493 80.07496 7213 ft 290 kts 315°
2026-04-21 10:10 13.16885 80.05983 7826 ft 293 kts 315°
2026-04-21 10:10 13.18289 80.04456 8469 ft 296 kts 316°
2026-04-21 10:10 13.19710 80.02913 9089 ft 299 kts 316°
2026-04-21 10:11 13.21149 80.01350 9696 ft 303 kts 316°
2026-04-21 10:11 13.22628 79.99746 9954 ft 320 kts 316°
2026-04-21 10:11 13.24209 79.98032 10078 ft 340 kts 316°
2026-04-21 10:11 13.25871 79.96228 10362 ft 353 kts 316°
2026-04-21 10:12 13.27566 79.94381 10892 ft 357 kts 315°
2026-04-21 10:12 13.29273 79.92515 11438 ft 360 kts 315°
2026-04-21 10:12 13.30995 79.90633 12005 ft 363 kts 315°
2026-04-21 10:12 13.32729 79.88741 12577 ft 365 kts 315°
2026-04-21 10:13 13.34479 79.86831 13129 ft 368 kts 315°
2026-04-21 10:13 13.36241 79.84911 13662 ft 371 kts 315°
2026-04-21 10:13 13.38018 79.82972 14118 ft 375 kts 315°
2026-04-21 10:13 13.39810 79.81016 14586 ft 377 kts 315°
2026-04-21 10:14 13.41614 79.79046 15070 ft 380 kts 314°
2026-04-21 10:14 13.43431 79.77060 15549 ft 383 kts 314°
2026-04-21 10:14 13.45236 79.75088 15999 ft 385 kts 314°
2026-04-21 10:14 13.47078 79.73075 16465 ft 388 kts 314°
2026-04-21 10:15 13.48930 79.71053 16940 ft 390 kts 313°
2026-04-21 10:15 13.50793 79.69015 17413 ft 392 kts 313°
2026-04-21 10:15 13.52660 79.66970 17884 ft 394 kts 313°
2026-04-21 10:15 13.54541 79.64912 18284 ft 396 kts 313°
2026-04-21 10:16 13.56438 79.62839 18670 ft 399 kts 313°
2026-04-21 10:16 13.58345 79.60759 19060 ft 401 kts 312°
2026-04-21 10:16 13.60264 79.58665 19444 ft 404 kts 312°
2026-04-21 10:16 13.62194 79.56555 19819 ft 407 kts 311°
2026-04-21 10:17 13.64137 79.54427 20209 ft 409 kts 311°
2026-04-21 10:17 13.66083 79.52293 20619 ft 410 kts 311°
2026-04-21 10:17 13.68041 79.50144 21018 ft 413 kts 311°
2026-04-21 10:17 13.70006 79.47986 21413 ft 415 kts 311°
2026-04-21 10:18 13.71985 79.45816 21791 ft 417 kts 311°
2026-04-21 10:18 13.73975 79.43634 22152 ft 419 kts 311°
2026-04-21 10:18 13.75978 79.41437 22520 ft 422 kts 310°
2026-04-21 10:18 13.77991 79.39234 22889 ft 423 kts 310°
2026-04-21 10:19 13.80013 79.37022 23236 ft 425 kts 310°
2026-04-21 10:19 13.82041 79.34797 23537 ft 428 kts 310°
2026-04-21 10:19 13.84077 79.32556 23821 ft 429 kts 310°
2026-04-21 10:19 13.86119 79.30308 24103 ft 431 kts 310°
2026-04-21 10:20 13.88172 79.28050 24376 ft 433 kts 310°
2026-04-21 10:20 13.90233 79.25785 24670 ft 434 kts 310°
2026-04-21 10:20 13.92302 79.23511 24940 ft 436 kts 310°
2026-04-21 10:20 13.94378 79.21229 25220 ft 437 kts 310°
2026-04-21 10:21 13.96462 79.18938 25479 ft 439 kts 309°
2026-04-21 10:21 13.98551 79.16642 25749 ft 440 kts 309°
2026-04-21 10:21 14.00647 79.14340 26020 ft 441 kts 309°
2026-04-21 10:21 14.02719 79.12063 26282 ft 442 kts 309°
2026-04-21 10:22 14.04825 79.09746 26531 ft 444 kts 309°
2026-04-21 10:22 14.06936 79.07421 26750 ft 445 kts 309°
2026-04-21 10:22 14.09053 79.05087 27009 ft 447 kts 309°
2026-04-21 10:22 14.11176 79.02744 27267 ft 448 kts 309°
2026-04-21 10:23 14.13304 79.00395 27514 ft 449 kts 308°
2026-04-21 10:23 14.15437 78.98045 27773 ft 450 kts 308°
2026-04-21 10:23 14.17582 78.95683 28004 ft 452 kts 308°
2026-04-21 10:23 14.19733 78.93319 28251 ft 453 kts 308°
2026-04-21 10:24 14.21889 78.90944 28480 ft 454 kts 308°
2026-04-21 10:24 14.24046 78.88561 28698 ft 456 kts 308°
2026-04-21 10:24 14.26213 78.86169 28906 ft 457 kts 308°
2026-04-21 10:24 14.28384 78.83771 29121 ft 458 kts 307°
2026-04-21 10:25 14.30379 78.81234 29325 ft 454 kts 299°
2026-04-21 10:25 14.32111 78.78520 29533 ft 453 kts 298°
2026-04-21 10:25 14.33837 78.75800 29761 ft 454 kts 298°
2026-04-21 10:25 14.35566 78.73084 30017 ft 452 kts 298°
2026-04-21 10:26 14.37294 78.70377 30244 ft 451 kts 298°
2026-04-21 10:26 14.39021 78.67674 30478 ft 451 kts 298°
2026-04-21 10:26 14.40723 78.65011 30661 ft 451 kts 298°
2026-04-21 10:26 14.42452 78.62302 30799 ft 453 kts 298°
2026-04-21 10:27 14.44189 78.59576 30918 ft 455 kts 298°
2026-04-21 10:27 14.45932 78.56839 31035 ft 457 kts 297°
2026-04-21 10:27 14.47678 78.54093 31153 ft 459 kts 297°
2026-04-21 10:27 14.49431 78.51335 31270 ft 460 kts 297°
2026-04-21 10:28 14.51185 78.48573 31382 ft 461 kts 297°
2026-04-21 10:28 14.52944 78.45805 31501 ft 462 kts 297°
2026-04-21 10:28 14.54706 78.43037 31621 ft 462 kts 297°
2026-04-21 10:28 14.56477 78.40261 31742 ft 463 kts 297°
2026-04-21 10:29 14.58246 78.37483 31874 ft 463 kts 297°
2026-04-21 10:29 14.60012 78.34703 31995 ft 463 kts 297°
2026-04-21 10:29 14.61779 78.31917 32117 ft 464 kts 297°
2026-04-21 10:29 14.63545 78.29131 32240 ft 464 kts 297°
2026-04-21 10:30 14.65310 78.26344 32353 ft 464 kts 297°
2026-04-21 10:30 14.67074 78.23557 32496 ft 464 kts 297°
2026-04-21 10:30 14.68839 78.20771 32614 ft 464 kts 297°
2026-04-21 10:30 14.70607 78.17981 32741 ft 464 kts 297°
2026-04-21 10:31 14.72371 78.15196 32864 ft 464 kts 297°
2026-04-21 10:31 14.74112 78.12446 32981 ft 463 kts 297°
2026-04-21 10:31 14.75876 78.09660 33127 ft 463 kts 297°
2026-04-21 10:31 14.77637 78.06877 33251 ft 463 kts 296°
2026-04-21 10:32 14.79396 78.04092 33381 ft 463 kts 296°
2026-04-21 10:32 14.81155 78.01308 33512 ft 462 kts 296°
2026-04-21 10:32 14.82912 77.98528 33662 ft 461 kts 296°
2026-04-21 10:32 14.84670 77.95750 33775 ft 462 kts 296°
2026-04-21 10:33 14.86433 77.92962 33790 ft 465 kts 296°
2026-04-21 10:33 14.89984 77.87341 33789 ft 469 kts 296°
2026-04-21 10:34 14.93563 77.81668 33789 ft 472 kts 296°
2026-04-21 10:34 14.97148 77.75970 33788 ft 473 kts 296°
2026-04-21 10:35 15.00738 77.70270 33792 ft 473 kts 296°
2026-04-21 10:35 15.04330 77.64567 33801 ft 473 kts 296°
2026-04-21 10:36 15.07920 77.58857 33811 ft 473 kts 296°
2026-04-21 10:36 15.11508 77.53144 33810 ft 474 kts 296°
2026-04-21 10:37 15.15099 77.47428 33816 ft 473 kts 296°
2026-04-21 10:37 15.18671 77.41754 33815 ft 473 kts 296°
2026-04-21 10:38 15.22262 77.36040 33814 ft 473 kts 296°
2026-04-21 10:38 15.25838 77.30324 33813 ft 473 kts 296°
2026-04-21 10:39 15.29415 77.24598 33817 ft 473 kts 296°
2026-04-21 10:39 15.32991 77.18870 33821 ft 473 kts 296°
2026-04-21 10:40 15.36570 77.13147 33815 ft 473 kts 296°
2026-04-21 10:40 15.40151 77.07422 33818 ft 474 kts 297°
2026-04-21 10:41 15.44189 77.01954 33809 ft 479 kts 301°
2026-04-21 10:41 15.48309 76.96531 33809 ft 479 kts 301°
2026-04-21 10:42 15.52426 76.91101 33815 ft 479 kts 301°
2026-04-21 10:42 15.56530 76.85658 33822 ft 479 kts 301°
2026-04-21 10:43 15.60646 76.80208 33829 ft 480 kts 301°
2026-04-21 10:43 15.64736 76.74792 33825 ft 480 kts 301°
2026-04-21 10:44 15.68857 76.69337 33825 ft 480 kts 301°
2026-04-21 10:44 15.72972 76.63880 33828 ft 480 kts 301°
2026-04-21 10:45 15.77077 76.58424 33825 ft 480 kts 301°
2026-04-21 10:45 15.81191 76.52966 33832 ft 480 kts 301°
2026-04-21 10:46 15.85300 76.47502 33838 ft 480 kts 301°
2026-04-21 10:46 15.89408 76.42024 33827 ft 481 kts 301°
2026-04-21 10:47 15.93522 76.36543 33832 ft 482 kts 301°
2026-04-21 10:47 15.96956 76.31981 33827 ft 482 kts 301°
2026-04-21 10:48 16.01087 76.26487 33826 ft 483 kts 301°
2026-04-21 10:48 16.05216 76.20980 33840 ft 483 kts 301°
2026-04-21 10:49 16.09342 76.15467 33842 ft 483 kts 301°
2026-04-21 10:49 16.13472 76.09941 33841 ft 484 kts 301°
2026-04-21 10:50 16.17615 76.04413 33838 ft 485 kts 301°
2026-04-21 10:50 16.21757 75.98879 33840 ft 485 kts 301°
2026-04-21 10:51 16.25896 75.93332 33854 ft 485 kts 301°
2026-04-21 10:51 16.30032 75.87782 33855 ft 485 kts 301°
2026-04-21 10:52 16.34173 75.82230 33856 ft 485 kts 301°
2026-04-21 10:52 16.38312 75.76679 33866 ft 485 kts 301°
2026-04-21 10:53 16.42450 75.71121 33861 ft 485 kts 301°
2026-04-21 10:53 16.46586 75.65561 33856 ft 485 kts 301°
2026-04-21 10:54 16.50691 75.60037 33856 ft 486 kts 301°
2026-04-21 10:54 16.54822 75.54470 33868 ft 485 kts 301°
2026-04-21 10:55 16.58950 75.48908 33873 ft 485 kts 301°
2026-04-21 10:55 16.62467 75.43045 33870 ft 473 kts 290°
2026-04-21 10:56 16.65527 75.36959 33862 ft 474 kts 290°
2026-04-21 10:56 16.68584 75.30876 33861 ft 474 kts 290°
2026-04-21 10:57 16.71651 75.24784 33858 ft 474 kts 290°
2026-04-21 10:57 16.74713 75.18699 33856 ft 474 kts 290°
2026-04-21 10:58 16.77771 75.12601 33855 ft 474 kts 290°
2026-04-21 10:58 16.80825 75.06511 33902 ft 474 kts 290°
2026-04-21 10:59 16.83859 75.00473 33889 ft 472 kts 291°
2026-04-21 10:59 16.86900 74.94417 33893 ft 470 kts 291°
2026-04-21 11:00 16.89924 74.88369 33883 ft 469 kts 291°
2026-04-21 11:00 16.92941 74.82332 33875 ft 469 kts 291°
2026-04-21 11:01 16.95955 74.76300 33870 ft 468 kts 291°
2026-04-21 11:01 16.98968 74.70271 33864 ft 468 kts 291°
2026-04-21 11:02 17.03476 74.61223 33856 ft 468 kts 291°
2026-04-21 11:02 17.06483 74.55189 33856 ft 468 kts 291°
2026-04-21 11:03 17.09494 74.49157 33860 ft 468 kts 291°
2026-04-21 11:03 17.12495 74.43117 33861 ft 468 kts 291°
2026-04-21 11:04 17.15489 74.37074 33870 ft 468 kts 290°
2026-04-21 11:04 17.18464 74.31069 33852 ft 469 kts 290°
2026-04-21 11:05 17.21471 74.25012 33847 ft 470 kts 290°
2026-04-21 11:05 17.24478 74.18941 33857 ft 470 kts 290°
2026-04-21 11:06 17.27486 74.12865 33841 ft 470 kts 290°
2026-04-21 11:06 17.30498 74.06785 33858 ft 471 kts 290°
2026-04-21 11:07 17.33514 74.00703 33855 ft 471 kts 290°
2026-04-21 11:07 17.36522 73.94611 33853 ft 472 kts 290°
2026-04-21 11:08 17.39531 73.88508 33857 ft 472 kts 289°
2026-04-21 11:08 17.42534 73.82403 33869 ft 472 kts 289°
2026-04-21 11:09 17.45545 73.76290 33859 ft 472 kts 289°
2026-04-21 11:09 17.48566 73.70177 33861 ft 473 kts 289°
2026-04-21 11:10 17.51579 73.64056 33871 ft 472 kts 289°
2026-04-21 11:10 17.54569 73.57944 33866 ft 471 kts 290°
2026-04-21 11:11 17.57555 73.51843 33861 ft 470 kts 290°
2026-04-21 11:11 17.60520 73.45803 33843 ft 469 kts 290°
2026-04-21 11:12 17.63496 73.39722 33831 ft 469 kts 290°
2026-04-21 11:12 17.66471 73.33639 33824 ft 468 kts 290°
2026-04-21 11:13 17.69446 73.27563 33827 ft 468 kts 290°
2026-04-21 11:13 17.72416 73.21487 33826 ft 467 kts 290°
2026-04-21 11:14 17.75371 73.15425 33819 ft 466 kts 290°
2026-04-21 11:14 17.78324 73.09365 33812 ft 466 kts 290°
2026-04-21 11:15 17.81271 73.03317 33810 ft 466 kts 290°
2026-04-21 11:15 17.84210 72.97263 33809 ft 465 kts 290°
2026-04-21 11:16 17.87138 72.91210 33817 ft 465 kts 291°
2026-04-21 11:16 17.90069 72.85161 33812 ft 465 kts 291°
2026-04-21 11:17 17.93002 72.79116 33809 ft 465 kts 291°
2026-04-21 11:17 17.95936 72.73064 33808 ft 465 kts 291°
2026-04-21 11:18 17.98865 72.67010 33808 ft 465 kts 291°
2026-04-21 11:18 18.01793 72.60955 33807 ft 465 kts 291°
2026-04-21 11:19 18.04722 72.54899 33804 ft 465 kts 292°
2026-04-21 11:19 18.07653 72.48838 33797 ft 465 kts 292°
2026-04-21 11:20 18.10578 72.42768 33799 ft 465 kts 292°
2026-04-21 11:20 18.13492 72.36696 33796 ft 465 kts 292°
2026-04-21 11:21 18.16405 72.30623 33790 ft 465 kts 292°
2026-04-21 11:21 18.19327 72.24551 33798 ft 465 kts 294°
2026-04-21 11:22 18.22251 72.18470 33778 ft 466 kts 294°
2026-04-21 11:22 18.25151 72.12417 33779 ft 467 kts 294°
2026-04-21 11:23 18.28071 72.06316 33784 ft 467 kts 295°
2026-04-21 11:23 18.30999 72.00215 33786 ft 467 kts 295°
2026-04-21 11:24 18.33923 71.94104 33788 ft 468 kts 295°
2026-04-21 11:24 18.36845 71.87986 33791 ft 468 kts 295°
2026-04-21 11:25 18.39768 71.81861 33795 ft 468 kts 295°
2026-04-21 11:25 18.42690 71.75734 33800 ft 468 kts 295°
2026-04-21 11:26 18.45606 71.69600 33807 ft 468 kts 295°
2026-04-21 11:26 18.48525 71.63466 33803 ft 468 kts 295°
2026-04-21 11:27 18.51443 71.57331 33809 ft 469 kts 295°
2026-04-21 11:27 18.54353 71.51188 33821 ft 468 kts 296°
2026-04-21 11:28 18.57261 71.45055 33829 ft 467 kts 295°
2026-04-21 11:28 18.60164 71.38932 33830 ft 467 kts 296°
2026-04-21 11:29 18.63065 71.32808 33825 ft 467 kts 296°
2026-04-21 11:29 18.65961 71.26679 33823 ft 467 kts 295°
2026-04-21 11:30 18.68844 71.20544 33827 ft 467 kts 295°
2026-04-21 11:30 18.71726 71.14419 33833 ft 466 kts 296°
2026-04-21 11:31 18.74621 71.08298 33827 ft 467 kts 296°
2026-04-21 11:31 18.77499 71.02208 33825 ft 467 kts 295°
2026-04-21 11:32 18.80385 70.96066 33842 ft 467 kts 296°
2026-04-21 11:32 18.83270 70.89927 33845 ft 467 kts 296°
2026-04-21 11:33 18.86155 70.83785 33839 ft 468 kts 296°
2026-04-21 11:33 18.89045 70.77619 33829 ft 469 kts 296°
2026-04-21 11:34 18.91937 70.71455 33841 ft 469 kts 296°
2026-04-21 11:34 18.94817 70.65284 33846 ft 468 kts 296°
2026-04-21 11:35 18.97698 70.59114 33841 ft 468 kts 296°
2026-04-21 11:35 19.00578 70.52940 33840 ft 469 kts 296°
2026-04-21 11:36 19.03469 70.46757 33825 ft 470 kts 297°
2026-04-21 11:36 19.06364 70.40557 33823 ft 471 kts 297°
2026-04-21 11:37 19.09254 70.34354 33805 ft 475 kts 297°
2026-04-21 11:37 19.12179 70.28070 33811 ft 478 kts 298°
2026-04-21 11:38 19.15111 70.21754 33821 ft 479 kts 297°
2026-04-21 11:38 19.17546 70.16487 33818 ft 480 kts 298°
2026-04-21 11:39 19.20489 70.10128 33824 ft 482 kts 298°
2026-04-21 11:39 19.23442 70.03753 33831 ft 483 kts 298°
2026-04-21 11:40 19.26405 69.97367 33840 ft 484 kts 298°
2026-04-21 11:40 19.29362 69.90966 33849 ft 484 kts 298°
2026-04-21 11:41 19.32316 69.84558 33839 ft 484 kts 298°
2026-04-21 11:41 19.35271 69.78139 33839 ft 485 kts 298°
2026-04-21 11:42 19.38222 69.71714 33836 ft 485 kts 298°
2026-04-21 11:42 19.41163 69.65326 33841 ft 486 kts 298°
2026-04-21 11:43 19.44117 69.58894 33853 ft 486 kts 298°
2026-04-21 11:43 19.47076 69.52461 33851 ft 486 kts 298°
2026-04-21 11:44 19.50037 69.46019 33844 ft 486 kts 298°
2026-04-21 11:44 19.52995 69.39567 33838 ft 487 kts 298°
2026-04-21 11:45 19.55944 69.33112 33846 ft 487 kts 299°
2026-04-21 11:45 19.58990 69.26707 33843 ft 486 kts 300°
2026-04-21 11:46 19.62104 69.20347 33860 ft 485 kts 300°
2026-04-21 11:46 19.65172 69.14020 33855 ft 486 kts 300°
2026-04-21 11:47 19.68266 69.07586 33846 ft 486 kts 300°
2026-04-21 11:47 19.71310 69.01225 33852 ft 487 kts 299°
2026-04-21 11:48 19.74366 68.94812 33856 ft 487 kts 299°
2026-04-21 11:48 19.77431 68.88395 33859 ft 487 kts 299°
2026-04-21 11:49 19.80503 68.81977 33852 ft 488 kts 299°
2026-04-21 11:49 19.83572 68.75552 33859 ft 487 kts 299°
2026-04-21 11:50 19.86631 68.69133 33871 ft 486 kts 299°
2026-04-21 11:50 19.89683 68.62729 33875 ft 485 kts 299°
2026-04-21 11:51 19.92718 68.56331 33875 ft 485 kts 299°
2026-04-21 11:51 19.95757 68.49944 33869 ft 484 kts 299°
2026-04-21 11:52 19.98800 68.43549 33866 ft 485 kts 299°
2026-04-21 11:52 20.01831 68.37147 33864 ft 485 kts 299°
2026-04-21 11:53 20.04860 68.30748 33861 ft 484 kts 299°
2026-04-21 11:53 20.07863 68.24387 33864 ft 484 kts 298°
2026-04-21 11:54 20.10877 68.17994 33871 ft 483 kts 298°
2026-04-21 11:54 20.13896 68.11607 33870 ft 483 kts 298°
2026-04-21 11:55 20.16906 68.05219 33869 ft 483 kts 298°
2026-04-21 11:55 20.19915 67.98831 33867 ft 483 kts 298°
2026-04-21 11:56 20.22923 67.92442 33868 ft 483 kts 298°
2026-04-21 11:56 20.25928 67.86042 33867 ft 483 kts 298°
2026-04-21 11:57 20.28933 67.79641 33868 ft 483 kts 298°
2026-04-21 11:57 20.31929 67.73241 33870 ft 483 kts 298°
2026-04-21 11:58 20.34914 67.66844 33886 ft 481 kts 298°
2026-04-21 11:58 20.37895 67.60465 33884 ft 480 kts 298°
2026-04-21 11:59 20.40871 67.54094 33884 ft 480 kts 298°
2026-04-21 11:59 20.43840 67.47732 33878 ft 479 kts 298°
2026-04-21 12:00 20.46814 67.41366 33881 ft 480 kts 298°
2026-04-21 12:00 20.49758 67.35038 33880 ft 479 kts 298°
2026-04-21 12:01 20.52735 67.28624 33887 ft 479 kts 298°
2026-04-21 12:01 20.55688 67.22251 33873 ft 479 kts 298°
2026-04-21 12:02 20.60101 67.12720 33862 ft 480 kts 297°
2026-04-21 12:03 20.63060 67.06331 33856 ft 481 kts 297°
2026-04-21 12:03 20.66023 66.99932 33856 ft 481 kts 297°
2026-04-21 12:04 20.68980 66.93529 33863 ft 481 kts 297°
2026-04-21 12:04 20.71937 66.87119 33858 ft 482 kts 297°
2026-04-21 12:05 20.74902 66.80690 33852 ft 483 kts 297°
2026-04-21 12:05 20.77867 66.74237 33855 ft 484 kts 297°
2026-04-21 12:06 20.80824 66.67776 33874 ft 483 kts 297°
2026-04-21 12:06 20.83782 66.61341 33887 ft 481 kts 297°
2026-04-21 12:07 20.86731 66.54924 33881 ft 480 kts 297°
2026-04-21 12:07 20.89662 66.48519 33885 ft 479 kts 297°
2026-04-21 12:08 20.92583 66.42116 33880 ft 479 kts 297°
2026-04-21 12:08 20.95489 66.35755 33880 ft 479 kts 297°
2026-04-21 12:09 20.98412 66.29356 33877 ft 479 kts 297°
2026-04-21 12:09 21.01331 66.22943 33871 ft 479 kts 296°
2026-04-21 12:10 21.04253 66.16530 33868 ft 479 kts 296°
2026-04-21 12:10 21.07171 66.10129 33875 ft 478 kts 296°
2026-04-21 12:11 21.10081 66.03725 33879 ft 478 kts 296°
2026-04-21 12:11 21.12993 65.97328 33875 ft 478 kts 297°
2026-04-21 12:12 21.15975 65.90969 33875 ft 478 kts 297°
2026-04-21 12:12 21.18994 65.84625 33861 ft 478 kts 297°
2026-04-21 12:13 21.22000 65.78265 33865 ft 478 kts 297°
2026-04-21 12:13 21.24987 65.71900 33857 ft 478 kts 297°
2026-04-21 12:14 21.27979 65.65541 33865 ft 477 kts 296°
2026-04-21 12:14 21.30938 65.59229 33869 ft 477 kts 296°
2026-04-21 12:15 21.33906 65.52878 33877 ft 476 kts 296°
2026-04-21 12:15 21.36871 65.46527 33868 ft 476 kts 296°
2026-04-21 12:16 21.39833 65.40182 33867 ft 476 kts 296°
2026-04-21 12:16 21.42795 65.33837 33866 ft 475 kts 296°
2026-04-21 12:17 21.45761 65.27498 33858 ft 475 kts 296°
2026-04-21 12:17 21.48717 65.21144 33867 ft 475 kts 296°
2026-04-21 12:18 21.51661 65.14801 33870 ft 474 kts 296°
2026-04-21 12:18 21.54604 65.08464 33873 ft 474 kts 295°
2026-04-21 12:19 21.57536 65.02133 33864 ft 473 kts 295°
2026-04-21 12:19 21.60464 64.95797 33863 ft 473 kts 295°
2026-04-21 12:20 21.63394 64.89461 33858 ft 474 kts 295°
2026-04-21 12:20 21.66326 64.83120 33862 ft 474 kts 295°
2026-04-21 12:21 21.69235 64.76819 33859 ft 473 kts 295°
2026-04-21 12:21 21.72155 64.70480 33868 ft 473 kts 295°
2026-04-21 12:22 21.75073 64.64143 33859 ft 472 kts 295°
2026-04-21 12:22 21.77988 64.57811 33870 ft 472 kts 295°
2026-04-21 12:23 21.80898 64.51471 33871 ft 472 kts 295°
2026-04-21 12:23 21.83795 64.45134 33871 ft 472 kts 295°
2026-04-21 12:24 21.86700 64.38799 33864 ft 472 kts 295°
2026-04-21 12:24 21.89599 64.32464 33861 ft 471 kts 295°
2026-04-21 12:25 21.92488 64.26136 33871 ft 471 kts 295°
2026-04-21 12:25 21.95383 64.19816 33881 ft 470 kts 295°
2026-04-21 12:26 21.98260 64.13506 33877 ft 469 kts 295°
2026-04-21 12:26 22.01123 64.07197 33868 ft 468 kts 295°
2026-04-21 12:27 22.03982 64.00894 33871 ft 468 kts 294°
2026-04-21 12:27 22.06842 63.94591 33868 ft 468 kts 294°
2026-04-21 12:28 22.09683 63.88332 33867 ft 468 kts 294°
2026-04-21 12:28 22.12542 63.82029 33865 ft 467 kts 294°
2026-04-21 12:29 22.15392 63.75731 33869 ft 467 kts 294°
2026-04-21 12:29 22.18232 63.69436 33871 ft 467 kts 294°
2026-04-21 12:30 22.21073 63.63140 33866 ft 467 kts 294°
2026-04-21 12:30 22.23915 63.56836 33865 ft 467 kts 294°
2026-04-21 12:31 22.26755 63.50539 33868 ft 467 kts 294°
2026-04-21 12:31 22.29590 63.44230 33864 ft 467 kts 294°
2026-04-21 12:32 22.32416 63.37918 33847 ft 467 kts 294°
2026-04-21 12:32 22.34767 63.32670 33860 ft 467 kts 294°
2026-04-21 12:33 22.37597 63.26357 33862 ft 467 kts 294°
2026-04-21 12:33 22.40421 63.20040 33865 ft 467 kts 294°
2026-04-21 12:34 22.43242 63.13724 33867 ft 467 kts 294°
2026-04-21 12:34 22.45963 63.07370 33873 ft 464 kts 292°
2026-04-21 12:35 22.48445 63.00940 33872 ft 463 kts 291°
2026-04-21 12:35 22.50873 62.94497 33874 ft 462 kts 291°
2026-04-21 12:36 22.53346 62.88085 33871 ft 462 kts 292°
2026-04-21 12:36 22.55853 62.81695 33869 ft 461 kts 292°
2026-04-21 12:37 22.58344 62.75324 33876 ft 459 kts 292°
2026-04-21 12:37 22.60811 62.68961 33869 ft 458 kts 292°
2026-04-21 12:38 22.63269 62.62605 33872 ft 457 kts 292°
2026-04-21 12:38 22.65711 62.56305 33860 ft 457 kts 292°
2026-04-21 12:39 22.68170 62.49962 33865 ft 456 kts 292°
2026-04-21 12:39 22.70613 62.43633 33858 ft 455 kts 292°
2026-04-21 12:40 22.73050 62.37313 33859 ft 454 kts 292°
2026-04-21 12:40 22.75485 62.30999 33859 ft 454 kts 292°
2026-04-21 12:41 22.77918 62.24686 33857 ft 454 kts 292°
2026-04-21 12:41 22.80344 62.18375 33860 ft 453 kts 292°
2026-04-21 12:42 22.82758 62.12064 33857 ft 453 kts 292°
2026-04-21 12:42 22.85166 62.05756 33857 ft 453 kts 292°
2026-04-21 12:43 22.87578 61.99450 33855 ft 453 kts 292°
2026-04-21 12:43 22.89989 61.93150 33853 ft 452 kts 292°
2026-04-21 12:44 22.92383 61.86881 33848 ft 453 kts 292°
2026-04-21 12:44 22.94786 61.80568 33853 ft 453 kts 292°
2026-04-21 12:45 22.97189 61.74256 33853 ft 453 kts 292°
2026-04-21 12:45 22.99587 61.67940 33853 ft 452 kts 292°
2026-04-21 12:46 23.01984 61.61626 33849 ft 452 kts 292°
2026-04-21 12:46 23.04377 61.55306 33850 ft 452 kts 292°
2026-04-21 12:47 23.06766 61.48988 33849 ft 452 kts 292°
2026-04-21 12:47 23.09150 61.42670 33845 ft 452 kts 292°
2026-04-21 12:48 23.11540 61.36345 33843 ft 452 kts 292°
2026-04-21 12:48 23.13916 61.30020 33847 ft 452 kts 292°
2026-04-21 12:49 23.16272 61.23735 33844 ft 452 kts 292°
2026-04-21 12:49 23.18648 61.17414 33844 ft 452 kts 292°
2026-04-21 12:50 23.21024 61.11092 33848 ft 452 kts 292°
2026-04-21 12:50 23.23394 61.04767 33843 ft 452 kts 292°
2026-04-21 12:51 23.25759 60.98442 33836 ft 452 kts 292°
2026-04-21 12:51 23.28117 60.92105 33833 ft 452 kts 292°
2026-04-21 12:52 23.30477 60.85769 33835 ft 452 kts 292°
2026-04-21 12:52 23.32842 60.79439 33841 ft 451 kts 292°
2026-04-21 12:53 23.35202 60.73109 33828 ft 451 kts 292°
2026-04-21 12:53 23.37556 60.66769 33821 ft 452 kts 292°
2026-04-21 12:54 23.39903 60.60410 33818 ft 453 kts 292°
2026-04-21 12:54 23.42236 60.54037 33819 ft 453 kts 292°
2026-04-21 12:55 23.44579 60.47660 33815 ft 454 kts 292°
2026-04-21 12:55 23.46916 60.41275 33807 ft 454 kts 292°
2026-04-21 12:56 23.49246 60.34873 33817 ft 455 kts 291°
2026-04-21 12:56 23.51574 60.28460 33814 ft 455 kts 291°
2026-04-21 12:57 23.53907 60.22044 33810 ft 455 kts 291°
2026-04-21 12:57 23.56234 60.15624 33800 ft 456 kts 292°
2026-04-21 12:58 23.58570 60.09189 33794 ft 457 kts 292°
2026-04-21 12:58 23.60907 60.02737 33794 ft 458 kts 292°
2026-04-21 12:59 23.63244 59.96275 33792 ft 458 kts 292°
2026-04-21 12:59 23.65568 59.89848 33793 ft 459 kts 292°
2026-04-21 13:00 23.67921 59.83325 33796 ft 460 kts 292°
2026-04-21 13:00 23.70234 59.76873 33796 ft 460 kts 292°
2026-04-21 13:01 23.72567 59.70366 33798 ft 460 kts 292°
2026-04-21 13:01 23.74903 59.63861 33799 ft 461 kts 292°
2026-04-21 13:02 23.77240 59.57344 33793 ft 461 kts 292°
2026-04-21 13:02 23.80736 59.47570 33801 ft 461 kts 292°
2026-04-21 13:03 23.83065 59.41055 33803 ft 461 kts 292°
2026-04-21 13:03 23.85383 59.34532 33811 ft 460 kts 291°
2026-04-21 13:04 23.87698 59.28015 33814 ft 460 kts 291°
2026-04-21 13:04 23.90013 59.21507 33816 ft 459 kts 291°
2026-04-21 13:05 23.92319 59.15007 33818 ft 459 kts 291°
2026-04-21 13:05 23.94790 59.08586 33815 ft 458 kts 295°
2026-04-21 13:06 23.97550 59.02315 33807 ft 458 kts 296°
2026-04-21 13:06 24.00333 58.96062 33808 ft 457 kts 296°
2026-04-21 13:07 24.03021 58.89815 33820 ft 456 kts 295°
2026-04-21 13:07 24.05681 58.83521 33819 ft 455 kts 295°
2026-04-21 13:08 24.08341 58.77237 33815 ft 455 kts 295°
2026-04-21 13:08 24.11012 58.70966 33813 ft 454 kts 295°
2026-04-21 13:09 24.13685 58.64699 33811 ft 454 kts 295°
2026-04-21 13:09 24.16348 58.58427 33808 ft 454 kts 295°
2026-04-21 13:10 24.18999 58.52145 33819 ft 454 kts 294°
2026-04-21 13:10 24.21653 58.45876 33816 ft 454 kts 294°
2026-04-21 13:11 24.24306 58.39603 33813 ft 453 kts 294°
2026-04-21 13:11 24.26950 58.33340 33811 ft 453 kts 294°
2026-04-21 13:12 24.29589 58.27079 33814 ft 453 kts 294°
2026-04-21 13:12 24.32228 58.20815 33807 ft 452 kts 294°
2026-04-21 13:13 24.34859 58.14554 33814 ft 452 kts 293°
2026-04-21 13:13 24.37480 58.08301 33817 ft 451 kts 293°
2026-04-21 13:14 24.40102 58.02055 33815 ft 451 kts 293°
2026-04-21 13:14 24.42721 57.95809 33809 ft 450 kts 293°
2026-04-21 13:15 24.45326 57.89562 33801 ft 450 kts 293°
2026-04-21 13:15 24.47931 57.83300 33794 ft 451 kts 293°
2026-04-21 13:16 24.50519 57.77081 33792 ft 451 kts 292°
2026-04-21 13:16 24.52977 57.70749 33790 ft 451 kts 291°
2026-04-21 13:17 24.55342 57.64377 33800 ft 451 kts 291°
2026-04-21 13:17 24.57730 57.57999 33790 ft 451 kts 291°
2026-04-21 13:18 24.60137 57.51626 33782 ft 452 kts 291°
2026-04-21 13:18 24.62553 57.45253 33783 ft 452 kts 291°
2026-04-21 13:19 24.64966 57.38870 33787 ft 452 kts 291°
2026-04-21 13:19 24.67368 57.32482 33783 ft 453 kts 291°
2026-04-21 13:20 24.69772 57.26077 33797 ft 453 kts 291°
2026-04-21 13:20 24.72173 57.19690 33819 ft 451 kts 291°
2026-04-21 13:21 24.74572 57.13326 33824 ft 450 kts 291°
2026-04-21 13:21 24.76957 57.06971 33821 ft 449 kts 291°
2026-04-21 13:22 24.79327 57.00627 33820 ft 448 kts 291°
2026-04-21 13:22 24.81679 56.94328 33817 ft 448 kts 291°
2026-04-21 13:23 24.83656 56.89017 33812 ft 447 kts 291°
2026-04-21 13:23 24.86013 56.82683 33824 ft 447 kts 291°
2026-04-21 13:24 24.88352 56.76414 33828 ft 445 kts 291°
2026-04-21 13:24 24.90688 56.70117 33829 ft 444 kts 291°
2026-04-21 13:25 24.93014 56.63829 33822 ft 443 kts 291°
2026-04-21 13:25 24.95340 56.57549 33820 ft 442 kts 291°
2026-04-21 13:26 24.96843 56.51016 33803 ft 441 kts 277°
2026-04-21 13:26 24.97639 56.44307 33798 ft 442 kts 277°
2026-04-21 13:27 24.98452 56.37595 33802 ft 442 kts 277°
2026-04-21 13:27 24.99265 56.30872 33817 ft 442 kts 277°
2026-04-21 13:28 25.00070 56.24150 33813 ft 442 kts 277°
2026-04-21 13:28 25.00869 56.17429 33812 ft 443 kts 277°
2026-04-21 13:29 25.01657 56.10744 33811 ft 442 kts 277°
2026-04-21 13:29 25.02451 56.03972 33806 ft 443 kts 277°
2026-04-21 13:30 25.03234 55.97287 33803 ft 443 kts 277°
2026-04-21 13:30 25.04024 55.90556 33804 ft 443 kts 277°
2026-04-21 13:31 25.04816 55.83824 33797 ft 443 kts 277°
2026-04-21 13:31 25.05600 55.77091 33797 ft 443 kts 277°
2026-04-21 13:32 25.06374 55.70361 33795 ft 443 kts 276°
2026-04-21 13:32 25.07146 55.63622 33799 ft 443 kts 276°
2026-04-21 13:33 25.07925 55.56881 33784 ft 443 kts 276°
2026-04-21 13:33 25.08698 55.50123 33786 ft 444 kts 276°
2026-04-21 13:34 25.09462 55.43369 33789 ft 444 kts 276°
2026-04-21 13:34 25.10230 55.36620 33788 ft 444 kts 276°
2026-04-21 13:35 25.10995 55.29868 33789 ft 444 kts 276°
2026-04-21 13:35 25.11750 55.23112 33790 ft 443 kts 276°
2026-04-21 13:36 25.12511 55.16361 33792 ft 443 kts 276°
2026-04-21 13:36 25.13256 55.09655 33794 ft 443 kts 276°
2026-04-21 13:37 25.13996 55.02912 33793 ft 443 kts 276°
2026-04-21 13:37 25.14739 54.96164 33811 ft 443 kts 276°
2026-04-21 13:38 25.15592 54.89430 33802 ft 444 kts 278°
2026-04-21 13:38 25.16646 54.82715 33796 ft 444 kts 279°
2026-04-21 13:39 25.17723 54.76002 33794 ft 444 kts 279°
2026-04-21 13:39 25.18744 54.69278 33802 ft 444 kts 279°
2026-04-21 13:40 25.19732 54.62558 33811 ft 443 kts 278°
2026-04-21 13:40 25.20723 54.55845 33812 ft 443 kts 278°
2026-04-21 13:41 25.22090 54.49214 33808 ft 443 kts 284°
2026-04-21 13:41 25.23750 54.42645 33806 ft 444 kts 284°
2026-04-21 13:42 25.25408 54.36070 33819 ft 444 kts 284°
2026-04-21 13:42 25.27057 54.29496 33823 ft 444 kts 284°
2026-04-21 13:43 25.28682 54.22963 33820 ft 444 kts 284°
2026-04-21 13:43 25.30306 54.16373 33811 ft 445 kts 284°
2026-04-21 13:44 25.31888 54.09752 33811 ft 446 kts 282°
2026-04-21 13:44 25.33288 54.03079 33815 ft 446 kts 281°
2026-04-21 13:45 25.34644 53.96384 33825 ft 446 kts 282°
2026-04-21 13:45 25.36039 53.89703 33831 ft 446 kts 282°
2026-04-21 13:46 25.37451 53.83032 33841 ft 446 kts 282°
2026-04-21 13:46 25.38865 53.76366 33835 ft 445 kts 282°
2026-04-21 13:47 25.40270 53.69703 33841 ft 444 kts 282°
2026-04-21 13:47 25.41650 53.63057 33843 ft 442 kts 282°
2026-04-21 13:48 25.43025 53.56435 33840 ft 442 kts 282°
2026-04-21 13:48 25.44402 53.49821 33836 ft 441 kts 282°
2026-04-21 13:49 25.45777 53.43211 33833 ft 440 kts 282°
2026-04-21 13:49 25.47145 53.36612 33847 ft 440 kts 281°
2026-04-21 13:50 25.48503 53.30062 33839 ft 440 kts 281°
2026-04-21 13:50 25.49858 53.23470 33824 ft 439 kts 281°
2026-04-21 13:51 25.51198 53.16873 33811 ft 439 kts 281°
2026-04-21 13:51 25.52551 53.10278 33818 ft 439 kts 281°
2026-04-21 13:52 25.53898 53.03676 33829 ft 440 kts 281°
2026-04-21 13:52 25.55241 52.97070 33825 ft 440 kts 281°
2026-04-21 13:53 25.56831 52.90525 33826 ft 442 kts 290°
2026-04-21 13:53 25.59681 52.84474 33848 ft 444 kts 296°
2026-04-21 13:54 25.62624 52.78466 33847 ft 443 kts 295°
2026-04-21 13:54 25.65546 52.72455 33832 ft 443 kts 295°
2026-04-21 13:55 25.68465 52.66438 33837 ft 443 kts 295°
2026-04-21 13:55 25.71387 52.60417 33835 ft 443 kts 295°
2026-04-21 13:56 25.74310 52.54396 33836 ft 443 kts 295°
2026-04-21 13:56 25.77215 52.48365 33841 ft 443 kts 295°
2026-04-21 13:57 25.80035 52.42303 33853 ft 442 kts 295°
2026-04-21 13:57 25.82831 52.36222 33845 ft 442 kts 295°
2026-04-21 13:58 25.85638 52.30157 33848 ft 442 kts 295°
2026-04-21 13:58 25.89158 52.24561 33871 ft 446 kts 309°
2026-04-21 13:59 25.93325 52.19534 33869 ft 445 kts 309°
2026-04-21 13:59 25.97506 52.14477 33866 ft 444 kts 309°
2026-04-21 14:00 26.01682 52.09428 33859 ft 443 kts 309°
2026-04-21 14:00 26.05851 52.04383 33877 ft 443 kts 308°
2026-04-21 14:01 26.10016 51.99341 33874 ft 442 kts 308°
2026-04-21 14:01 26.14169 51.94310 33872 ft 441 kts 308°
2026-04-21 14:02 26.18314 51.89283 33869 ft 441 kts 308°
2026-04-21 14:03 26.24455 51.81681 33872 ft 438 kts 303°
2026-04-21 14:03 26.27427 51.75865 33696 ft 424 kts 293°
2026-04-21 14:03 26.28715 51.72971 33425 ft 410 kts 293°
2026-04-21 14:04 26.29968 51.70165 33159 ft 399 kts 293°
2026-04-21 14:04 26.31187 51.67441 32905 ft 388 kts 293°
2026-04-21 14:04 26.32380 51.64774 32494 ft 382 kts 293°
2026-04-21 14:04 26.33560 51.62130 31986 ft 379 kts 292°
2026-04-21 14:05 26.34727 51.59502 31489 ft 377 kts 292°
2026-04-21 14:05 26.35886 51.56891 31000 ft 374 kts 292°
2026-04-21 14:05 26.37039 51.54300 30517 ft 372 kts 292°
2026-04-21 14:05 26.38100 51.51688 30056 ft 367 kts 286°
2026-04-21 14:06 26.38953 51.49016 29538 ft 365 kts 286°
2026-04-21 14:06 26.39799 51.46364 29088 ft 361 kts 286°
2026-04-21 14:06 26.40636 51.43742 28639 ft 357 kts 286°
2026-04-21 14:06 26.41463 51.41146 28215 ft 353 kts 285°
2026-04-21 14:07 26.42284 51.38574 27788 ft 350 kts 285°
2026-04-21 14:07 26.43095 51.36027 27352 ft 347 kts 285°
2026-04-21 14:07 26.43902 51.33499 26904 ft 345 kts 285°
2026-04-21 14:07 26.44704 51.30992 26454 ft 342 kts 285°
2026-04-21 14:08 26.45261 51.28477 26006 ft 336 kts 274°
2026-04-21 14:08 26.45287 51.25892 25559 ft 331 kts 262°
2026-04-21 14:08 26.44797 51.23399 25024 ft 330 kts 249°
2026-04-21 14:08 26.43705 51.21135 24208 ft 332 kts 238°
2026-04-21 14:09 26.42458 51.18977 23428 ft 330 kts 238°
2026-04-21 14:09 26.41212 51.16832 22508 ft 328 kts 238°
2026-04-21 14:09 26.39974 51.14702 21621 ft 326 kts 239°
2026-04-21 14:09 26.38742 51.12587 20762 ft 324 kts 239°
2026-04-21 14:10 26.37519 51.10486 19933 ft 322 kts 239°
2026-04-21 14:10 26.36306 51.08399 19138 ft 319 kts 240°
2026-04-21 14:10 26.35104 51.06333 18368 ft 317 kts 240°
2026-04-21 14:10 26.33909 51.04281 17528 ft 314 kts 239°
2026-04-21 14:11 26.32727 51.02251 16719 ft 310 kts 239°
2026-04-21 14:11 26.31562 51.00248 15998 ft 306 kts 238°
2026-04-21 14:11 26.30415 50.98275 15281 ft 301 kts 238°
2026-04-21 14:11 26.29283 50.96328 14574 ft 297 kts 237°
2026-04-21 14:12 26.28165 50.94405 13872 ft 294 kts 237°
2026-04-21 14:12 26.27061 50.92508 13128 ft 290 kts 236°
2026-04-21 14:12 26.25965 50.90628 12296 ft 288 kts 236°
2026-04-21 14:12 26.24876 50.88762 11528 ft 286 kts 236°
2026-04-21 14:13 26.24158 50.87536 11046 ft 284 kts 236°
2026-04-21 14:13 26.22724 50.85082 10098 ft 281 kts 236°
2026-04-21 14:13 26.21678 50.83289 9389 ft 279 kts 236°
2026-04-21 14:13 26.20969 50.82072 8878 ft 277 kts 236°
2026-04-21 14:14 26.19438 50.79845 7900 ft 273 kts 219°
2026-04-21 14:14 26.17768 50.78879 7328 ft 268 kts 202°
2026-04-21 14:14 26.16007 50.78318 6848 ft 262 kts 187°
2026-04-21 14:14 26.14788 50.78407 6531 ft 259 kts 172°
2026-04-21 14:15 26.13100 50.79034 6056 ft 256 kts 149°
2026-04-21 14:15 26.11896 50.80452 5569 ft 253 kts 118°
2026-04-21 14:15 26.11470 50.82320 5091 ft 249 kts 93°
2026-04-21 14:15 26.11482 50.84227 4614 ft 244 kts 79°
2026-04-21 14:16 26.12046 50.85965 4122 ft 237 kts 56°
2026-04-21 14:16 26.13127 50.87302 3646 ft 230 kts 37°
2026-04-21 14:16 26.14496 50.88149 3212 ft 222 kts 15°
2026-04-21 14:16 26.15961 50.88268 3070 ft 204 kts 351°
2026-04-21 14:17 26.17206 50.87748 2975 ft 186 kts 328°
2026-04-21 14:17 26.18104 50.86800 2839 ft 178 kts 307°
2026-04-21 14:17 26.18480 50.85510 2710 ft 181 kts 271°
2026-04-21 14:17 26.18455 50.84111 2589 ft 180 kts 279°
2026-04-21 14:18 26.18516 50.82712 2472 ft 182 kts 279°
2026-04-21 14:18 26.18579 50.81306 2360 ft 183 kts 277°
2026-04-21 14:18 26.18642 50.79891 2230 ft 183 kts 277°
2026-04-21 14:18 26.18778 50.78496 2100 ft 178 kts 290°
2026-04-21 14:19 26.19213 50.77242 1981 ft 173 kts 304°
2026-04-21 14:19 26.19787 50.76078 1860 ft 172 kts 307°
2026-04-21 14:19 26.20413 50.74936 1741 ft 173 kts 307°
2026-04-21 14:19 26.21054 50.73806 1629 ft 171 kts 308°
2026-04-21 14:20 26.21695 50.72691 1542 ft 171 kts 308°
2026-04-21 14:20 26.22342 50.71572 1367 ft 171 kts 308°
2026-04-21 14:20 26.22977 50.70471 1155 ft 167 kts 310°
2026-04-21 14:20 26.23602 50.69390 943 ft 166 kts 309°
2026-04-21 14:21 26.24228 50.68308 749 ft 164 kts 313°
2026-04-21 14:21 26.24820 50.67276 594 ft 152 kts 314°
2026-04-21 14:21 26.25377 50.66309 356 ft 144 kts 312°
2026-04-21 14:21 26.25906 50.65394 181 ft 139 kts 313°
2026-04-21 14:22 26.26427 50.64497 45 ft 134 kts 311°
2026-04-21 14:22 26.26881 50.63721 16 ft 101 kts 301°
2026-04-21 14:22 26.27165 50.63226 17 ft 51 kts 303°
2026-04-21 14:22 26.27251 50.63004 16 ft 21 kts 273°
2026-04-21 14:23 26.27255 50.62861 18 ft 7 kts 272°
2026-04-21 14:23 26.27255 50.62850 18 ft 0 kts 272°
2026-04-21 14:24 26.27255 50.62849 18 ft 1 kts 272°
2026-04-21 14:24 26.27253 50.62765 19 ft 6 kts 252°
2026-04-21 14:24 26.27251 50.62752 19 ft 3 kts 262°
2026-04-21 14:25 26.27252 50.62719 18 ft 9 kts 273°
2026-04-21 14:25 26.27227 50.62645 18 ft 10 kts 224°
2026-04-21 14:25 26.27175 50.62606 20 ft 8 kts 213°
2026-04-21 14:25 26.27137 50.62579 19 ft 6 kts 212°
2026-04-21 14:26 26.27103 50.62555 20 ft 3 kts 214°
2026-04-21 14:26 26.27097 50.62550 19 ft 0 kts 214°